Regional Weather Roundup
Issued by NWS State College, PA

Home | Current Version | Previous Version | Text Only | Print | Product List | Glossary Off
Versions: 1 2 3 4 5 6 7 8 9 10 11 12 13 14 15 16 17 18 19 20 21 22 23 24 25 26 27 28 29 30 31 32 33 34 35 36 37 38 39 40 41 42 43 44 45 46 47 48 49 50

751
ASUS41 KCTP 242010
RWRCTP

REGIONAL WEATHER ROUNDUP
NATIONAL WEATHER SERVICE STATE COLLEGE PA
400 PM EDT SUN JUL 24 2016

Note: "fair" indicates few or no clouds below 12,000 feet with no
significant weather and/or obstructions to visibility.

* = STATION THAT DOES NOT REPORT PRECIPITATION /E.G. RAIN...SNOW...ETC/
    THUNDER OR FOG.

PAZ002>004-007>009-013>016-020>023-029>032-242100-
WESTERN PENNSYLVANIA

CITY           SKY/WX    TMP DP  RH WIND       PRES   REMARKS
ERIE           CLOUDY    87  71  58 NW3       29.95F
MEADVILLE      CLOUDY    82  64  54 SW3       30.00S
FRANKLIN*      CLOUDY    79  66  65 S3        30.03S
NEW CASTLE     TSTM      72  71  97 W6        30.02S
BEAVER COUNTY  NOT AVBL
BUTLER*        CLOUDY    79  68  69 W10G29    30.06R THUNDER
PITTSBURGH INT CLOUDY    87  68  52 SW6       29.99F THUNDER
PITTSBURGH     CLOUDY    88  68  51 S9        29.98F
INDIANA*       SUNNY     91  68  46 W9G17     30.02F HX  95
LATROBE        MOSUNNY   91  68  46 W9        30.00F HX  95
WASHINGTON CO* CLOUDY    90  72  55 SW8       30.01S HX  96
$$

PAZ004>006-010>012-017>019-024>028-033>037-041-042-045-046-049>053-242100-
CENTRAL PENNSYLVANIA

CITY           SKY/WX    TMP DP  RH WIND       PRES   REMARKS
BRADFORD       PTSUNNY   81  57  43 VRB5      30.06S
DUBOIS         PTSUNNY   89  58  34 SW6       30.01F
CLEARFIELD     PTSUNNY   94  54  25 NW10      30.00F
JOHNSTOWN      MOSUNNY   88  61  40 SW9G18    30.05F
ALTOONA        SUNNY     93  64  38 SW8       30.00F
STATE COLLEGE  SUNNY     93  61  33 SW6       29.98F
WILLIAMSPORT   CLOUDY    91  59  33 VRB6      29.94F
SELINSGROVE    MOSUNNY   94  63  35 SW8       29.95F HX  95
FT INDIANTOWN  MOSUNNY   93  61  34 S7        29.96F
CAPITAL CITY   CLOUDY    93  62  35 S6        29.95F
HARRISBURG     PTSUNNY   92  70  48 SE7       29.95F HX  97
YORK           PTSUNNY   90  64  42 S3        29.97F
$$

PAZ038>040-043-044-047-048-054-055-060>062-067>071-242100-
EASTERN PENNSYLVANIA

CITY           SKY/WX    TMP DP  RH WIND       PRES   REMARKS
SCRANTON       MOSUNNY   92  60  34 W9        29.97F
MOUNT POCONO   SUNNY     85  56  37 SW8       30.04F
ALLENTOWN      MOSUNNY   94  59  31 VRB3      29.95F
QUAKERTOWN*    CLEAR     93  59  31 CALM      29.97F
READING        MOSUNNY   95  60  31 S7        29.94F HX  95
LANCASTER      MOSUNNY   89  63  41 W8        29.97F
COATESVILLE    PTCLDY    86  64  48 VRB5      30.01F
POTTSTOWN      MOSUNNY   94  58  29 SW10G16   29.97S
BLUE BELL      SUNNY     91  61  35 SW6       29.95S
DOYLESTOWN     SUNNY     91  58  32 CALM      29.95F
WILLOW GROVE   NOT AVBL
NORTH PHILA    SUNNY     95  60  31 SW6       29.96F HX  95
PHILADELPHIA   PTSUNNY   94  59  31 SW12G17   29.96S
$$




USA.gov is the U.S. government's official web portal to all federal, state and local government web resources and services.